This is the latest recevied weather packets stored in our database for station/object N5RPG. If no packets are shown the sender has not sent any weather packets the latest 10 day(s).
| Time | Temp. | Humidity | Pressure | Rain* | Wind** | Luminosity | Snow |
|---|---|---|---|---|---|---|---|
| 1777948263 | 21.67° C | 67% | 1009.6 hPa | 0 mm | - | 0 W/m² | - |
| 1777947960 | 21.67° C | 67% | 1009.8 hPa | 0 mm | - | 0 W/m² | - |
| 1777947657 | 21.67° C | 67% | 1009.8 hPa | 0 mm | - | 0 W/m² | - |
| 1777947353 | 21.67° C | 66% | 1009.7 hPa | 0 mm | - | 0 W/m² | - |
| 1777947050 | 21.67° C | 66% | 1009.6 hPa | 0 mm | - | 0 W/m² | - |
| 1777946750 | 22.22° C | 65% | 1009.6 hPa | 0 mm | - | 0 W/m² | - |
| 1777946447 | 22.22° C | 65% | 1009.7 hPa | 0 mm | - | 0 W/m² | - |
| 1777946144 | 22.22° C | 64% | 1009.5 hPa | 0 mm | - | 0 W/m² | - |
| 1777945841 | 22.22° C | 64% | 1009.4 hPa | 0 mm | - | 0 W/m² | - |
| 1777945538 | 22.22° C | 64% | 1009.3 hPa | 0 mm | - | 0 W/m² | - |
| 1777945235 | 22.22° C | 63% | 1009.4 hPa | 0 mm | - | 0 W/m² | - |
| 1777944932 | 22.22° C | 63% | 1009.3 hPa | 0 mm | - | 0 W/m² | - |
| 1777944630 | 22.22° C | 63% | 1009.3 hPa | 0 mm | - | 0 W/m² | - |
| 1777944327 | 22.22° C | 63% | 1009.4 hPa | 0 mm | - | 0 W/m² | - |
| 1777944024 | 22.78° C | 62% | 1009.3 hPa | 0 mm | - | 0 W/m² | - |
| 1777943720 | 22.78° C | 61% | 1009.3 hPa | 0 mm | - | 0 W/m² | - |
| 1777943417 | 22.78° C | 60% | 1009.4 hPa | 0 mm | - | 1 W/m² | - |
| 1777943113 | 22.78° C | 60% | 1009.3 hPa | 0 mm | - | 1 W/m² | - |
| 1777942809 | 23.33° C | 59% | 1009.1 hPa | 0 mm | - | 3 W/m² | - |
| 1777942506 | 23.33° C | 58% | 1009.3 hPa | 0 mm | - | 5 W/m² | - |
| 1777942204 | 23.33° C | 57% | 1009.1 hPa | 0 mm | - | 8 W/m² | - |
| 1777941900 | 23.89° C | 56% | 1009.3 hPa | 0 mm | - | 11 W/m² | - |
| 1777941596 | 23.89° C | 55% | 1009.2 hPa | 0 mm | - | 16 W/m² | - |
| 1777941294 | 23.89° C | 53% | 1009.3 hPa | 0 mm | - | 19 W/m² | - |
| 1777940990 | 24.44° C | 53% | 1009.3 hPa | 0 mm | - | 27 W/m² | - |
* Rain latest hour (hover to see other rain measurements)
** Current wind speed in m/s (hover to see current wind gust speed)